Regional Weather Roundup
Issued by NWS

Home | Current Version | Previous Version | Graphics & Text | Print | Product List | Glossary On
Versions: 1 2 3 4 5 6 7 8 9 10 11 12 13 14 15 16 17 18 19 20 21 22 23 24 25 26 27 28 29 30 31 32 33 34 35 36 37 38 39 40 41 42 43 44 45 46 47 48 49 50
000
ASUS43 KIND 281459
RWRIN

WEATHER ROUNDUP FOR INDIANA
NATIONAL WEATHER SERVICE INDIANAPOLIS IN
1100 AM EDT SAT MAR 28 2015

NOTE: "FAIR" INDICATES FEW OR NO CLOUDS BELOW 12,000 FEET WITH NO
SIGNIFICANT WEATHER AND/OR OBSTRUCTIONS TO VISIBILITY.

* - STATION DOES NOT REPORT WEATHER SUCH AS PRECIPITATION OR FOG.

+ - STATION NOT QUALITY CONTROLLED BY THE NATIONAL WEATHER SERVICE.
    USE DATA WITH CAUTION...ESPECIALLY DEWPOINT AND RELATIVE
    HUMIDITY OBSERVATIONS.

INZ001>003-010>013-019-020-281600-
NORTHWEST INDIANA

CITY           SKY/WX    TMP DP  RH WIND       PRES   REMARKS

$$

LMZ046-743>745-281600-
SOUTHERN LAKE MICHIGAN

STATION/POSITION TIME  TEMP WIND        PRES
                       AIR  DIR/SP/G
                 (UTC) (F)  (DEG/KT/KT) (MB)
BURNS HARBOR     1400   24   70/  7/ 10 1027.8R
MICHIGAN CITY    1400   20   30/  6/  9   N/A

$$

INZ004-005-014>016-021>024-281600-
NORTH CENTRAL INDIANA

CITY           SKY/WX    TMP DP  RH WIND       PRES   REMARKS
ELKHART        SUNNY     25   5  42 CALM      30.33R
GOSHEN         SUNNY     24   9  52 VRB7      30.31R WCI  16
SOUTH BEND     SUNNY     24   8  50 VRB3      30.33R

$$

INZ006>009-017-018-025>027-281600-
NORTHEAST INDIANA

CITY           SKY/WX    TMP DP  RH WIND       PRES   REMARKS
ANGOLA *+      SUNNY     21   7  53 CALM      30.28S
FORT WAYNE     SUNNY     25   6  44 N5        30.31R WCI  19

$$

INZ028-029-035-036-043>045-051>053-281600-
WEST CENTRAL INDIANA

CITY           SKY/WX    TMP DP  RH WIND       PRES   REMARKS
GREENCASTLE +  SUNNY     27  10  50 NE5       30.31R WCI  21
LAFAYETTE      SUNNY     26   9  48 NE7       30.33R WCI  18
TERRE HAUTE    SUNNY     28  12  51 VRB3      30.32R

$$

INZ030>032-037>040-046>048-054>057-064-065-281600-
CENTRAL INDIANA

CITY           SKY/WX    TMP DP  RH WIND       PRES   REMARKS
COLUMBUS       SUNNY     27  12  54 N5        30.31R WCI  21
GREENWOOD *+   SUNNY     27  12  54 N3        30.30R
INDIANAPOLIS   MOSUNNY   27  12  53 E3        30.28R
-EAGLE CREEK   SUNNY     26  12  55 VRB6      30.29R WCI  19
KOKOMO *+        N/A     25  12  58 E8        30.31R WCI  16
MT COMFORT *+  SUNNY     28   7  40 NE6       30.29R WCI  22
SHELBYVILLE    SUNNY     29  16  58 E6        30.29R WCI  23

$$

INZ033-034-041-042-049-050-058-059-281600-
EAST CENTRAL INDIANA

CITY           SKY/WX    TMP DP  RH WIND       PRES   REMARKS
MUNCIE         SUNNY     25  10  53 NE9       30.29R WCI  15

$$

INZ060-061-067>069-081>083-085>088-281600-
SOUTHWEST INDIANA

CITY           SKY/WX    TMP DP  RH WIND       PRES   REMARKS
EVANSVILLE     SUNNY     30  16  56 NE9       30.33R WCI  22
HUNTINGBURG *+ SUNNY     28  16  59 NE7       30.32R WCI  21

$$

INZ062-063-066-070>080-084-089>092-281600-
SOUTH CENTRAL AND SOUTHEAST INDIANA

CITY           SKY/WX    TMP DP  RH WIND       PRES   REMARKS
BLOOMINGTON    SUNNY     29  15  56 VRB5      30.29R WCI  24
SEYMOUR +      SUNNY     30  16  55 NE3       30.31R

$$



USA.gov is the U.S. government's official web portal to all federal, state and local government web resources and services.